User: anonymous   Login
Location: Gombori
(14.9797°N, 2.9419°W)
Time: 08:31:45
(UTC+00:00)
Language:

SJ-6B - Orbit

View from above orbital plane
View from above orbital plane
View from above satellite
View from above satellite

Ground track
Ground track

The orbit data is extracted from the following two-line orbital elements,

1 28415U 04035C   21292.65070367  .00000701  00000-0  49266-4 0  9991
2 28415  97.5520 333.0115 0052509 122.2869 238.3461 15.07257514937314
Epoch (UTC): 19 October 2021 15:37:00
Eccentricity: 0.0052509
inclination: 97.5520°
perigee height: 508 km
apogee height: 581 km
right ascension of ascending node: 333.0115°
argument of perigee: 122.2869°
revolutions per day: 15.07257514
mean anomaly at epoch: 238.3461°
orbit number at epoch: 93731

The dashed part of the orbit path shows where the satellite is in the earth's shadow,  

DLR